Tracking 26544 objects as of 9-Dec-2022
HD Live streaming from Space Station
objects crossing your sky now

H-2A DEB

Track H-2A DEB now!
10-day predictions


NORAD ID: 53125
Int'l Code: 2018-084DU
Perigee: 614.2 km
Apogee: 758.2 km
Inclination: 98.5 °
Period: 98.3 minutes
Semi major axis: 7057 km
RCS: Unknown
Launch date: October 29, 2018
Source: Japan (JPN)
Launch site: TANEGASHIMA SPACE CENTER (TNSTA)

Note: This is SATELLITE DEBRIS
aabbcc
Your satellite tracking list
Your tracking list is empty




NASA's NSSDC Master Catalog

Two Line Element Set (TLE):
1 53125U 18084DU  22342.14799650  .00165889  00000-0  28464-1 0  9993
2 53125  98.4756  55.7670 0102000 197.5751 162.1912 14.64372959 22371
Source of the keplerian elements: AFSPC